Location: Kaseke
(18.0171°S, 31.0526°E)
Time: 12:30:28
(UTC+00:00)

GPS 2-15 Rocket1 - Pass Details

Date: 14 July 2020
Orbit: 624 x 675 km, 19.8° (Epoch: 07 August)

Event Time Altitude Azimuth Distance (km) Brightness Sun altitude
Exits shadow 03:43:07 13° 270° (W) 1,870 4.9 -10.7°
Maximum altitude 03:47:19 52° 345° (NNW) 793 3.6 -9.8°
Drops below altitude 10° 03:51:54 10° 61° (ENE) 2,005 7.3 -8.7°
Sets 03:54:17 0° 66° (ENE) 2,904 9.0 -8.2°
